Time,TemperatureF,DewpointF,PressureIn,WindDirection,WindDirectionDegrees,WindSpeedMPH,WindSpeedGustMPH,Humidity,HourlyPrecipIn,Conditions,Clouds,dailyrainin,SoftwareType,DateUTC
2013-03-09 00:01:00,34.3,27.2,30.28,ESE,121,1.9,3.0,75,0.00,RA,,0.00,WeatherDisplay:10.37,2013-03-09 06:01:00,
2013-03-09 00:06:00,34.3,27.2,30.27,SE,132,0.8,3.5,75,0.00,RA,,0.00,WeatherDisplay:10.37,2013-03-09 06:06:00,
2013-03-09 00:11:00,34.3,27.2,30.27,SSE,148,0.6,4.6,75,0.00,CLR,,0.00,WeatherDisplay:10.37,2013-03-09 06:11:00,
2013-03-09 00:16:00,34.3,26.9,30.27,SSE,159,3.7,4.6,74,0.00,CLR,,0.00,WeatherDisplay:10.37,2013-03-09 06:16:00,
2013-03-09 00:21:00,34.3,26.9,30.27,SSE,154,3.9,4.6,74,0.00,CLR,,0.00,WeatherDisplay:10.37,2013-03-09 06:21:00,
2013-03-09 00:26:00,34.3,26.9,30.27,ESE,117,3.2,4.6,74,0.00,CLR,,0.00,WeatherDisplay:10.37,2013-03-09 06:26:00,
2013-03-09 00:31:00,34.3,26.9,30.27,ESE,120,3.4,3.5,74,0.00,CLR,,0.00,WeatherDisplay:10.37,2013-03-09 06:31:00,
2013-03-09 00:36:00,34.3,26.9,30.27,ESE,120,1.0,3.5,74,0.00,CLR,,0.00,WeatherDisplay:10.37,2013-03-09 06:36:00,
2013-03-09 00:41:00,34.1,26.7,30.27,ESE,120,0.8,3.5,74,0.00,CLR,,0.00,WeatherDisplay:10.37,2013-03-09 06:41:00,
2013-03-09 00:46:00,34.1,26.7,30.27,ESE,118,3.5,3.5,74,0.00,CLR,,0.00,WeatherDisplay:10.37,2013-03-09 06:46:00,
2013-03-09 00:51:00,34.0,26.6,30.27,ESE,118,0.8,1.5,74,0.00,CLR,,0.00,WeatherDisplay:10.37,2013-03-09 06:51:00,
2013-03-09 00:56:00,33.8,26.4,30.27,ESE,118,1.2,3.0,74,0.00,CLR,,0.00,WeatherDisplay:10.37,2013-03-09 06:56:00,
2013-03-09 01:01:00,33.8,26.4,30.27,ESE,118,0.0,0.0,74,0.00,CLR,,0.00,WeatherDisplay:10.37,2013-03-09 07:01:00,
2013-03-09 01:06:00,33.7,26.3,30.27,ESE,119,0.0,1.1,74,0.00,CLR,,0.00,WeatherDisplay:10.37,2013-03-09 07:06:00,
2013-03-09 01:11:00,33.7,26.3,30.26,ESE,118,0.0,3.5,74,0.00,CLR,,0.00,WeatherDisplay:10.37,2013-03-09 07:11:00,
2013-03-09 01:16:00,33.5,26.1,30.26,ESE,118,0.9,1.5,74,0.00,CLR,,0.00,WeatherDisplay:10.37,2013-03-09 07:16:00,
2013-03-09 01:21:00,33.4,26.0,30.26,ESE,118,0.2,1.1,74,0.00,CLR,,0.00,WeatherDisplay:10.37,2013-03-09 07:21:00,
2013-03-09 01:26:00,33.4,26.3,30.26,ESE,118,0.5,1.5,75,0.00,CLR,,0.00,WeatherDisplay:10.37,2013-03-09 07:26:00,
2013-03-09 01:31:00,33.4,26.3,30.26,ESE,118,0.3,1.1,75,0.00,CLR,,0.00,WeatherDisplay:10.37,2013-03-09 07:31:00,
2013-03-09 01:36:00,33.4,26.3,30.25,ESE,118,0.0,1.1,75,0.00,CLR,,0.00,WeatherDisplay:10.37,2013-03-09 07:36:00,
2013-03-09 01:41:00,33.4,26.3,30.24,ESE,118,3.1,4.6,75,0.00,CLR,,0.00,WeatherDisplay:10.37,2013-03-09 07:41:00,
2013-03-09 01:46:00,33.5,26.4,30.24,ESE,116,1.2,1.2,75,0.00,CLR,,0.00,WeatherDisplay:10.37,2013-03-09 07:46:00,
2013-03-09 01:51:00,33.7,26.6,30.23,ESE,116,2.0,3.5,75,0.00,CLR,,0.00,WeatherDisplay:10.37,2013-03-09 07:51:00,
2013-03-09 01:56:00,34.0,26.9,30.23,ENE,76,3.6,4.6,75,0.00,CLR,,0.00,WeatherDisplay:10.37,2013-03-09 07:56:00,
2013-03-09 02:01:00,34.1,26.7,30.22,ESE,111,5.9,5.9,74,0.00,CLR,,0.00,WeatherDisplay:10.37,2013-03-09 08:01:00,
2013-03-09 02:06:00,34.3,26.9,30.22,East,95,7.4,7.4,74,0.00,CLR,,0.00,WeatherDisplay:10.37,2013-03-09 08:06:00,
2013-03-09 02:11:00,34.3,26.5,30.22,ESE,105,4.0,4.6,73,0.00,CLR,,0.00,WeatherDisplay:10.37,2013-03-09 08:11:00,
2013-03-09 02:16:00,34.4,26.6,30.21,ESE,109,5.1,8.1,73,0.00,CLR,,0.00,WeatherDisplay:10.37,2013-03-09 08:16:00,
2013-03-09 02:21:00,34.4,26.6,30.22,ENE,78,4.0,4.6,73,0.00,CLR,,0.00,WeatherDisplay:10.37,2013-03-09 08:21:00,
2013-03-09 02:26:00,34.4,26.6,30.21,East,92,6.5,6.5,73,0.00,CLR,,0.00,WeatherDisplay:10.37,2013-03-09 08:26:00,
2013-03-09 02:31:00,34.4,26.3,30.20,ENE,76,4.2,4.2,72,0.00,SCT,,0.00,WeatherDisplay:10.37,2013-03-09 08:31:00,
2013-03-09 02:36:00,34.4,26.3,30.21,East,100,5.6,5.6,72,0.00,SCT,,0.00,WeatherDisplay:10.37,2013-03-09 08:36:00,
2013-03-09 02:41:00,34.4,26.3,30.21,East,101,3.5,4.6,72,0.00,SCT,,0.00,WeatherDisplay:10.37,2013-03-09 08:41:00,
2013-03-09 02:46:00,34.4,26.3,30.21,ESE,102,4.6,4.6,72,0.00,SCT,,0.00,WeatherDisplay:10.37,2013-03-09 08:46:00,
2013-03-09 02:51:00,34.6,26.5,30.21,SE,128,3.4,3.5,72,0.00,SCT,,0.00,WeatherDisplay:10.37,2013-03-09 08:51:00,
2013-03-09 02:56:00,34.7,26.3,30.21,ESE,123,1.8,3.5,71,0.00,SCT,,0.00,WeatherDisplay:10.37,2013-03-09 08:56:00,
2013-03-09 03:01:00,34.7,26.3,30.21,SSE,148,3.4,4.6,71,0.00,SCT,,0.00,WeatherDisplay:10.37,2013-03-09 09:01:00,
2013-03-09 03:06:00,34.9,26.4,30.21,SE,134,7.1,8.1,71,0.00,SCT,,0.00,WeatherDisplay:10.37,2013-03-09 09:06:00,
2013-03-09 03:11:00,35.0,26.2,30.21,SE,126,3.6,8.1,70,0.00,SCT,,0.00,WeatherDisplay:10.37,2013-03-09 09:11:00,
2013-03-09 03:16:00,35.0,26.2,30.22,ESE,123,4.0,4.6,70,0.00,SCT,,0.00,WeatherDisplay:10.37,2013-03-09 09:16:00,
2013-03-09 03:21:00,35.0,25.9,30.22,SE,129,7.1,8.1,69,0.00,SCT,,0.00,WeatherDisplay:10.37,2013-03-09 09:21:00,
2013-03-09 03:26:00,35.0,26.2,30.22,ESE,120,4.3,4.6,70,0.00,SCT,,0.00,WeatherDisplay:10.37,2013-03-09 09:26:00,
2013-03-09 03:31:00,35.0,26.2,30.22,SSE,147,3.7,4.6,70,0.00,CLR,,0.00,WeatherDisplay:10.37,2013-03-09 09:31:00,
2013-03-09 03:36:00,35.0,26.5,30.22,SSE,166,6.1,9.2,71,0.00,CLR,,0.00,WeatherDisplay:10.37,2013-03-09 09:36:00,
2013-03-09 03:41:00,35.0,26.5,30.22,SE,137,3.7,4.6,71,0.00,CLR,,0.00,WeatherDisplay:10.37,2013-03-09 09:41:00,
2013-03-09 03:46:00,35.0,26.5,30.22,SSE,160,4.2,4.6,71,0.00,CLR,,0.00,WeatherDisplay:10.37,2013-03-09 09:46:00,
2013-03-09 03:51:00,35.0,26.5,30.22,ESE,119,3.9,4.6,71,0.00,-RA,,0.00,WeatherDisplay:10.37,2013-03-09 09:51:00,
2013-03-09 03:56:00,35.0,26.5,30.21,SE,132,4.5,5.8,71,0.00,-RA,,0.00,WeatherDisplay:10.37,2013-03-09 09:56:00,
2013-03-09 04:01:00,35.0,26.5,30.21,SE,126,6.8,8.1,71,0.00,-RA,,0.00,WeatherDisplay:10.37,2013-03-09 10:01:00,
2013-03-09 04:06:00,35.0,26.5,30.21,East,84,4.4,5.8,71,0.00,-RA,,0.00,WeatherDisplay:10.37,2013-03-09 10:06:00,
2013-03-09 04:11:00,35.2,26.4,30.21,ESE,120,4.6,4.6,70,0.00,SCT,,0.00,WeatherDisplay:10.37,2013-03-09 10:11:00,
2013-03-09 04:16:00,35.2,26.4,30.21,ESE,122,5.4,5.8,70,0.00,SCT,,0.00,WeatherDisplay:10.37,2013-03-09 10:16:00,
2013-03-09 04:21:00,35.3,26.1,30.21,SE,128,5.8,5.8,69,0.00,SCT,,0.00,WeatherDisplay:10.37,2013-03-09 10:21:00,
2013-03-09 04:26:00,35.3,26.1,30.21,ESE,118,5.2,5.8,69,0.00,SCT,,0.00,WeatherDisplay:10.37,2013-03-09 10:26:00,
2013-03-09 04:31:00,35.5,26.3,30.21,East,90,8.7,10.4,69,0.00,BKN,,0.00,WeatherDisplay:10.37,2013-03-09 10:31:00,
2013-03-09 04:36:00,35.5,26.3,30.21,SE,132,5.6,5.8,69,0.00,BKN,,0.00,WeatherDisplay:10.37,2013-03-09 10:36:00,
2013-03-09 04:41:00,35.5,26.3,30.21,SE,128,5.1,5.1,69,0.00,BKN,,0.00,WeatherDisplay:10.37,2013-03-09 10:41:00,
2013-03-09 04:46:00,35.5,26.3,30.20,SE,128,3.6,4.6,69,0.00,BKN,,0.00,WeatherDisplay:10.37,2013-03-09 10:46:00,
2013-03-09 04:51:00,35.5,26.3,30.21,SE,143,5.8,8.1,69,0.00,SCT,,0.00,WeatherDisplay:10.37,2013-03-09 10:51:00,
2013-03-09 04:56:00,35.5,26.0,30.20,ESE,122,4.5,5.8,68,0.00,SCT,,0.00,WeatherDisplay:10.37,2013-03-09 10:56:00,
2013-03-09 05:01:00,35.5,26.3,30.20,East,101,3.9,4.6,69,0.00,SCT,,0.00,WeatherDisplay:10.37,2013-03-09 11:01:00,
2013-03-09 05:06:00,35.5,26.3,30.19,ENE,75,4.4,4.6,69,0.00,SCT,,0.00,WeatherDisplay:10.37,2013-03-09 11:06:00,
2013-03-09 05:11:00,35.5,26.3,30.19,SE,146,4.4,5.8,69,0.00,BKN,,0.00,WeatherDisplay:10.37,2013-03-09 11:11:00,
2013-03-09 05:16:00,35.5,26.3,30.19,ESE,119,6.4,6.4,69,0.00,BKN,,0.00,WeatherDisplay:10.37,2013-03-09 11:16:00,
2013-03-09 05:22:00,35.5,26.3,30.19,SE,126,9.6,9.6,69,0.00,BKN,,0.00,WeatherDisplay:10.37,2013-03-09 11:22:00,
2013-03-09 05:27:00,35.6,26.1,30.19,ESE,106,6.0,8.1,68,0.00,BKN,,0.00,WeatherDisplay:10.37,2013-03-09 11:27:00,
2013-03-09 05:32:00,35.6,26.4,30.19,SE,128,6.7,7.5,69,0.00,BKN,,0.00,WeatherDisplay:10.37,2013-03-09 11:32:00,
2013-03-09 05:37:00,35.6,26.4,30.19,SE,138,2.1,8.1,69,0.00,BKN,,0.00,WeatherDisplay:10.37,2013-03-09 11:37:00,
2013-03-09 05:42:00,35.6,26.4,30.19,ESE,115,8.4,8.4,69,0.00,BKN,,0.00,WeatherDisplay:10.37,2013-03-09 11:42:00,
2013-03-09 05:47:00,35.6,26.4,30.19,SE,136,6.8,8.1,69,0.00,BKN,,0.00,WeatherDisplay:10.37,2013-03-09 11:47:00,
2013-03-09 05:52:00,35.6,26.4,30.20,SE,134,5.5,8.1,69,0.00,SCT,,0.00,WeatherDisplay:10.37,2013-03-09 11:52:00,
2013-03-09 05:57:00,35.8,26.3,30.20,ESE,107,9.1,10.4,68,0.00,SCT,,0.00,WeatherDisplay:10.37,2013-03-09 11:57:00,
2013-03-09 06:02:00,35.9,26.4,30.21,ESE,113,4.7,5.8,68,0.00,SCT,,0.00,WeatherDisplay:10.37,2013-03-09 12:02:00,
2013-03-09 06:07:00,35.9,26.4,30.21,ESE,121,8.5,9.2,68,0.00,SCT,,0.00,WeatherDisplay:10.37,2013-03-09 12:07:00,
2013-03-09 06:12:00,35.9,26.4,30.21,SE,139,2.1,5.8,68,0.00,BKN,,0.00,WeatherDisplay:10.37,2013-03-09 12:12:00,
2013-03-09 06:17:00,35.9,26.4,30.21,ESE,105,6.6,8.1,68,0.00,BKN,,0.00,WeatherDisplay:10.37,2013-03-09 12:17:00,
2013-03-09 06:22:00,36.0,26.5,30.20,ESE,122,4.8,10.4,68,0.00,BKN,,0.00,WeatherDisplay:10.37,2013-03-09 12:22:00,
2013-03-09 06:27:00,36.0,26.5,30.19,ESE,123,8.2,8.2,68,0.00,BKN,,0.00,WeatherDisplay:10.37,2013-03-09 12:27:00,
2013-03-09 06:32:00,36.0,26.5,30.20,ESE,117,6.2,7.5,68,0.00,OVC,,0.00,WeatherDisplay:10.37,2013-03-09 12:32:00,
2013-03-09 06:37:00,36.2,26.6,30.20,ESE,113,4.4,8.1,68,0.00,OVC,,0.00,WeatherDisplay:10.37,2013-03-09 12:37:00,
2013-03-09 06:42:00,36.2,26.6,30.21,SE,132,6.3,9.2,68,0.00,OVC,,0.00,WeatherDisplay:10.37,2013-03-09 12:42:00,
2013-03-09 06:47:00,36.2,26.6,30.21,ESE,117,5.8,6.0,68,0.00,OVC,,0.00,WeatherDisplay:10.37,2013-03-09 12:47:00,
2013-03-09 06:52:00,36.3,26.7,30.21,SE,127,5.1,9.2,68,0.00,BKN,,0.00,WeatherDisplay:10.37,2013-03-09 12:52:00,
2013-03-09 06:57:00,36.3,26.7,30.21,SE,130,3.8,5.8,68,0.00,BKN,,0.00,WeatherDisplay:10.37,2013-03-09 12:57:00,
2013-03-09 07:02:00,36.5,26.9,30.20,East,101,8.9,9.2,68,0.00,BKN,,0.00,WeatherDisplay:10.37,2013-03-09 13:02:00,
2013-03-09 07:07:00,36.5,26.9,30.20,SSE,149,9.4,9.4,68,0.00,BKN,,0.00,WeatherDisplay:10.37,2013-03-09 13:07:00,
2013-03-09 07:12:00,36.6,27.0,30.20,SE,130,2.6,3.5,68,0.00,BKN,,0.00,WeatherDisplay:10.37,2013-03-09 13:12:00,
2013-03-09 07:17:00,36.6,27.0,30.21,SE,127,1.5,3.5,68,0.00,BKN,,0.00,WeatherDisplay:10.37,2013-03-09 13:17:00,
2013-03-09 07:22:00,36.8,26.9,30.21,SE,142,3.0,3.5,67,0.00,BKN,,0.00,WeatherDisplay:10.37,2013-03-09 13:22:00,
2013-03-09 07:27:00,36.9,27.0,30.20,ESE,110,7.3,9.0,67,0.00,BKN,,0.00,WeatherDisplay:10.37,2013-03-09 13:27:00,
2013-03-09 07:32:00,37.0,27.1,30.20,SE,124,7.1,8.1,67,0.00,BKN,,0.00,WeatherDisplay:10.37,2013-03-09 13:32:00,
2013-03-09 07:37:00,37.0,27.1,30.20,SE,134,11.9,11.9,67,0.00,BKN,,0.00,WeatherDisplay:10.37,2013-03-09 13:37:00,
2013-03-09 07:42:00,37.2,27.2,30.20,SE,134,6.9,6.9,67,0.00,BKN,,0.00,WeatherDisplay:10.37,2013-03-09 13:42:00,
2013-03-09 07:47:00,37.3,27.3,30.20,SE,125,5.7,5.8,67,0.00,BKN,,0.00,WeatherDisplay:10.37,2013-03-09 13:47:00,
2013-03-09 07:52:00,37.5,27.2,30.20,SE,127,10.9,15.0,66,0.00,SCT,,0.00,WeatherDisplay:10.37,2013-03-09 13:52:00,
2013-03-09 07:57:00,37.6,27.3,30.20,East,100,9.4,9.4,66,0.00,SCT,,0.00,WeatherDisplay:10.37,2013-03-09 13:57:00,
2013-03-09 08:02:00,37.8,27.5,30.20,SE,126,6.1,6.1,66,0.00,SCT,,0.00,WeatherDisplay:10.37,2013-03-09 14:02:00,
2013-03-09 08:07:00,37.9,27.5,30.19,ESE,122,8.5,8.5,66,0.00,SCT,,0.00,WeatherDisplay:10.37,2013-03-09 14:07:00,
2013-03-09 08:12:00,38.0,27.6,30.19,SE,128,5.5,8.1,66,0.00,SCT,,0.00,WeatherDisplay:10.37,2013-03-09 14:12:00,
2013-03-09 08:17:00,38.0,27.6,30.18,ESE,123,11.0,11.0,66,0.00,SCT,,0.00,WeatherDisplay:10.37,2013-03-09 14:17:00,
2013-03-09 08:22:00,38.2,27.5,30.18,ESE,105,10.0,10.4,65,0.00,SCT,,0.00,WeatherDisplay:10.37,2013-03-09 14:22:00,
2013-03-09 08:27:00,38.5,27.7,30.18,SSE,158,12.3,15.0,65,0.00,SCT,,0.00,WeatherDisplay:10.37,2013-03-09 14:27:00,
2013-03-09 08:32:00,38.6,27.8,30.17,SE,128,9.6,9.6,65,0.00,SCT,,0.00,WeatherDisplay:10.37,2013-03-09 14:32:00,
2013-03-09 08:37:00,38.8,27.7,30.17,ESE,103,6.0,8.1,64,0.00,SCT,,0.00,WeatherDisplay:10.37,2013-03-09 14:37:00,
2013-03-09 08:42:00,38.8,27.7,30.17,East,99,10.8,10.8,64,0.00,SCT,,0.00,WeatherDisplay:10.37,2013-03-09 14:42:00,
2013-03-09 08:47:00,38.9,27.8,30.17,SE,137,6.7,8.1,64,0.00,SCT,,0.00,WeatherDisplay:10.37,2013-03-09 14:47:00,
2013-03-09 08:52:00,38.9,28.1,30.17,East,93,7.3,7.3,65,0.00,SCT,,0.00,WeatherDisplay:10.37,2013-03-09 14:52:00,
2013-03-09 08:57:00,38.8,28.0,30.17,ESE,108,6.9,8.1,65,0.00,SCT,,0.00,WeatherDisplay:10.37,2013-03-09 14:57:00,
2013-03-09 09:02:00,38.8,28.0,30.18,SE,126,14.0,14.0,65,0.00,SCT,,0.00,WeatherDisplay:10.37,2013-03-09 15:02:00,
2013-03-09 09:07:00,38.9,28.1,30.18,SE,136,3.4,4.6,65,0.00,SCT,,0.00,WeatherDisplay:10.37,2013-03-09 15:07:00,
2013-03-09 09:12:00,38.9,28.1,30.18,SE,140,10.7,10.7,65,0.00,CLR,,0.00,WeatherDisplay:10.37,2013-03-09 15:12:00,
2013-03-09 09:17:00,39.1,27.9,30.18,SE,134,9.6,15.0,64,0.00,CLR,,0.00,WeatherDisplay:10.37,2013-03-09 15:17:00,
2013-03-09 09:22:00,39.1,27.9,30.17,ESE,123,6.7,6.7,64,0.00,CLR,,0.00,WeatherDisplay:10.37,2013-03-09 15:22:00,
2013-03-09 09:27:00,39.2,28.0,30.17,ESE,109,7.0,9.2,64,0.00,CLR,,0.00,WeatherDisplay:10.37,2013-03-09 15:27:00,
2013-03-09 09:32:00,39.2,28.4,30.16,ESE,115,6.9,6.9,65,0.00,CLR,,0.00,WeatherDisplay:10.37,2013-03-09 15:32:00,
2013-03-09 09:37:00,39.2,28.0,30.16,SE,145,8.1,11.5,64,0.00,CLR,,0.00,WeatherDisplay:10.37,2013-03-09 15:37:00,
2013-03-09 09:42:00,39.3,28.1,30.16,ESE,105,8.7,8.7,64,0.00,CLR,,0.00,WeatherDisplay:10.37,2013-03-09 15:42:00,
2013-03-09 09:47:00,39.5,28.3,30.16,ESE,120,6.7,9.2,64,0.00,CLR,,0.00,WeatherDisplay:10.37,2013-03-09 15:47:00,
2013-03-09 09:52:00,39.6,28.4,30.16,SE,129,8.1,8.1,64,0.00,CLR,,0.00,WeatherDisplay:10.37,2013-03-09 15:52:00,
2013-03-09 09:57:00,39.8,28.6,30.16,ESE,119,7.8,7.8,64,0.00,CLR,,0.00,WeatherDisplay:10.37,2013-03-09 15:57:00,
2013-03-09 10:02:00,39.9,28.7,30.15,East,93,9.9,9.9,64,0.00,CLR,,0.00,WeatherDisplay:10.37,2013-03-09 16:02:00,
2013-03-09 10:07:00,40.1,28.9,30.15,ESE,107,7.1,10.4,64,0.00,CLR,,0.00,WeatherDisplay:10.37,2013-03-09 16:07:00,
2013-03-09 10:12:00,40.2,29.0,30.15,SSE,153,4.0,5.8,64,0.00,CLR,,0.00,WeatherDisplay:10.37,2013-03-09 16:12:00,
2013-03-09 10:17:00,40.5,28.9,30.15,SE,131,8.3,10.4,63,0.00,CLR,,0.00,WeatherDisplay:10.37,2013-03-09 16:17:00,
2013-03-09 10:22:00,40.6,29.4,30.15,SSE,155,5.6,9.2,64,0.00,CLR,,0.00,WeatherDisplay:10.37,2013-03-09 16:22:00,
2013-03-09 10:27:00,40.8,29.6,30.14,ESE,113,3.3,4.6,64,0.00,CLR,,0.00,WeatherDisplay:10.37,2013-03-09 16:27:00,
2013-03-09 10:32:00,40.9,29.3,30.14,SE,139,10.1,10.1,63,0.00,CLR,,0.00,WeatherDisplay:10.37,2013-03-09 16:32:00,
2013-03-09 10:37:00,41.1,29.5,30.14,SE,140,5.1,8.1,63,0.00,CLR,,0.00,WeatherDisplay:10.37,2013-03-09 16:37:00,
2013-03-09 10:42:00,41.2,29.5,30.14,SE,130,5.4,5.8,63,0.00,CLR,,0.00,WeatherDisplay:10.37,2013-03-09 16:42:00,
2013-03-09 10:47:00,41.5,29.8,30.13,SSE,152,4.3,5.8,63,0.00,CLR,,0.00,WeatherDisplay:10.37,2013-03-09 16:47:00,
2013-03-09 10:52:00,41.6,29.9,30.13,SE,125,4.2,4.6,63,0.00,CLR,,0.00,WeatherDisplay:10.37,2013-03-09 16:52:00,
2013-03-09 10:57:00,41.9,30.2,30.13,SE,130,2.4,4.5,63,0.00,CLR,,0.00,WeatherDisplay:10.37,2013-03-09 16:57:00,
2013-03-09 11:02:00,42.2,30.1,30.13,ESE,103,5.9,5.9,62,0.00,CLR,,0.00,WeatherDisplay:10.37,2013-03-09 17:02:00,
2013-03-09 11:07:00,42.5,30.0,30.13,SE,126,12.5,13.8,61,0.00,CLR,,0.00,WeatherDisplay:10.37,2013-03-09 17:07:00,
2013-03-09 11:12:00,42.9,30.4,30.13,ESE,115,5.2,6.0,61,0.00,CLR,,0.00,WeatherDisplay:10.37,2013-03-09 17:12:00,
2013-03-09 11:17:00,43.2,30.2,30.12,East,100,9.3,9.3,60,0.00,CLR,,0.00,WeatherDisplay:10.37,2013-03-09 17:17:00,
2013-03-09 11:22:00,43.5,30.9,30.12,SE,128,5.3,5.8,61,0.00,CLR,,0.00,WeatherDisplay:10.37,2013-03-09 17:22:00,
2013-03-09 11:27:00,43.6,30.2,30.12,ESE,105,6.6,6.6,59,0.00,CLR,,0.00,WeatherDisplay:10.37,2013-03-09 17:27:00,
2013-03-09 11:32:00,43.9,30.9,30.11,ESE,115,4.9,5.8,60,0.00,CLR,,0.00,WeatherDisplay:10.37,2013-03-09 17:32:00,
2013-03-09 11:37:00,44.1,31.1,30.11,SE,130,9.0,9.2,60,0.00,CLR,,0.00,WeatherDisplay:10.37,2013-03-09 17:37:00,
2013-03-09 11:42:00,43.9,31.7,30.10,SE,126,9.8,11.5,62,0.01,RA,,0.01,WeatherDisplay:10.37,2013-03-09 17:42:00,
2013-03-09 11:47:00,43.6,32.2,30.10,SE,128,5.4,8.1,64,0.01,RA,,0.01,WeatherDisplay:10.37,2013-03-09 17:47:00,
2013-03-09 11:52:00,43.3,32.3,30.11,SE,132,7.3,7.3,65,0.01,CLR,,0.01,WeatherDisplay:10.37,2013-03-09 17:52:00,
2013-03-09 11:57:00,43.2,33.3,30.10,SE,135,5.2,5.8,68,0.01,CLR,,0.01,WeatherDisplay:10.37,2013-03-09 17:57:00,
2013-03-09 12:02:00,42.9,33.4,30.10,SE,136,5.6,5.8,69,0.02,RA,,0.02,WeatherDisplay:10.37,2013-03-09 18:02:00,
2013-03-09 12:07:00,42.9,33.4,30.10,SE,130,5.6,5.8,69,0.02,RA,,0.02,WeatherDisplay:10.37,2013-03-09 18:07:00,
2013-03-09 12:12:00,42.9,33.8,30.09,SE,133,5.6,10.4,70,0.02,-RA,,0.02,WeatherDisplay:10.37,2013-03-09 18:12:00,
2013-03-09 12:17:00,43.2,34.1,30.09,SE,134,6.2,7.5,70,0.02,-RA,,0.02,WeatherDisplay:10.37,2013-03-09 18:17:00,
2013-03-09 12:22:00,43.3,34.2,30.08,East,101,3.6,4.6,70,0.02,-RA,,0.02,WeatherDisplay:10.37,2013-03-09 18:22:00,
2013-03-09 12:27:00,43.6,34.1,30.08,SE,134,7.4,7.4,69,0.02,-RA,,0.02,WeatherDisplay:10.37,2013-03-09 18:27:00,
2013-03-09 12:32:00,44.1,34.2,30.08,SE,141,5.3,8.1,68,0.02,-RA,,0.02,WeatherDisplay:10.37,2013-03-09 18:32:00,
2013-03-09 12:38:00,44.5,34.6,30.07,East,96,9.0,9.0,68,0.02,-RA,,0.02,WeatherDisplay:10.37,2013-03-09 18:38:00,
2013-03-09 12:43:00,44.9,34.2,30.06,SE,141,8.2,10.4,66,0.01,-RA,,0.02,WeatherDisplay:10.37,2013-03-09 18:43:00,
2013-03-09 12:48:00,45.2,34.5,30.06,ESE,108,12.8,13.8,66,0.01,-RA,,0.02,WeatherDisplay:10.37,2013-03-09 18:48:00,
2013-03-09 12:53:00,45.7,35.0,30.05,SE,138,7.3,11.5,66,0.01,-DZ,,0.02,WeatherDisplay:10.37,2013-03-09 18:53:00,
2013-03-09 12:58:00,46.1,35.4,30.05,SSE,151,6.2,8.1,66,0.01,-DZ,,0.02,WeatherDisplay:10.37,2013-03-09 18:58:00,
2013-03-09 13:03:00,46.5,35.7,30.04,East,99,4.1,4.6,66,0.00,-DZ,,0.02,WeatherDisplay:10.37,2013-03-09 19:03:00,
2013-03-09 13:08:00,46.8,34.9,30.03,SE,138,8.6,9.0,63,0.00,-DZ,,0.02,WeatherDisplay:10.37,2013-03-09 19:08:00,
2013-03-09 13:13:00,47.4,34.6,30.03,East,80,7.3,10.4,61,0.00,CLR,,0.02,WeatherDisplay:10.37,2013-03-09 19:13:00,
2013-03-09 13:18:00,47.7,34.9,30.02,ESE,115,12.3,12.3,61,0.00,CLR,,0.02,WeatherDisplay:10.37,2013-03-09 19:18:00,
2013-03-09 13:23:00,47.9,35.1,30.02,SE,142,9.1,10.5,61,0.00,CLR,,0.02,WeatherDisplay:10.37,2013-03-09 19:23:00,
2013-03-09 13:28:00,47.9,34.7,30.01,SE,128,7.6,9.2,60,0.00,CLR,,0.02,WeatherDisplay:10.37,2013-03-09 19:28:00,
2013-03-09 13:33:00,47.9,35.1,30.01,ESE,109,5.1,5.8,61,0.00,CLR,,0.02,WeatherDisplay:10.37,2013-03-09 19:33:00,
2013-03-09 13:38:00,47.7,34.9,30.00,East,89,4.4,10.4,61,0.00,CLR,,0.02,WeatherDisplay:10.37,2013-03-09 19:38:00,
2013-03-09 13:43:00,47.7,34.5,30.01,ESE,118,12.4,13.8,60,0.00,CLR,,0.02,WeatherDisplay:10.37,2013-03-09 19:43:00,
2013-03-09 13:48:00,47.9,35.1,30.01,SE,141,7.3,10.4,61,0.00,CLR,,0.02,WeatherDisplay:10.37,2013-03-09 19:48:00,
2013-03-09 13:53:00,47.7,35.3,30.00,SE,139,6.6,6.6,62,0.00,-RA,,0.02,WeatherDisplay:10.37,2013-03-09 19:53:00,
2013-03-09 13:58:00,47.9,35.1,30.00,SSE,147,4.8,8.1,61,0.00,-RA,,0.02,WeatherDisplay:10.37,2013-03-09 19:58:00,
2013-03-09 14:03:00,47.9,35.1,30.00,SSE,157,11.7,11.7,61,0.00,-RA,,0.02,WeatherDisplay:10.37,2013-03-09 20:03:00,
2013-03-09 14:08:00,47.9,35.1,30.00,ESE,121,6.9,6.9,61,0.00,-RA,,0.02,WeatherDisplay:10.37,2013-03-09 20:08:00,
2013-03-09 14:13:00,47.9,35.1,30.00,SE,132,10.2,10.2,61,0.00,-RA,,0.02,WeatherDisplay:10.37,2013-03-09 20:13:00,
2013-03-09 14:18:00,47.7,35.7,30.00,SE,146,8.5,10.5,63,0.00,-RA,,0.02,WeatherDisplay:10.37,2013-03-09 20:18:00,
2013-03-09 14:23:00,47.4,35.8,29.99,SE,141,5.2,5.8,64,0.00,-RA,,0.02,WeatherDisplay:10.37,2013-03-09 20:23:00,
2013-03-09 14:28:00,47.3,35.7,29.99,SE,146,7.6,8.1,64,0.00,-RA,,0.02,WeatherDisplay:10.37,2013-03-09 20:28:00,
2013-03-09 14:33:00,47.1,35.9,29.99,SE,126,5.3,5.3,65,0.00,-RA,,0.02,WeatherDisplay:10.37,2013-03-09 20:33:00,
2013-03-09 14:38:00,47.0,36.2,29.98,ENE,78,3.6,4.6,66,0.01,-RA,,0.03,WeatherDisplay:10.37,2013-03-09 20:38:00,
2013-03-09 14:43:00,47.0,36.2,29.98,ESE,115,2.1,4.6,66,0.01,-RA,,0.03,WeatherDisplay:10.37,2013-03-09 20:43:00,
2013-03-09 14:48:00,47.0,36.6,29.98,East,93,2.8,5.8,67,0.01,-RA,,0.03,WeatherDisplay:10.37,2013-03-09 20:48:00,
2013-03-09 14:53:00,47.1,36.3,29.98,SE,125,4.5,5.8,66,0.01,-RA,,0.03,WeatherDisplay:10.37,2013-03-09 20:53:00,
2013-03-09 14:58:00,47.3,36.5,29.98,ESE,111,2.3,5.8,66,0.01,-RA,,0.03,WeatherDisplay:10.37,2013-03-09 20:58:00,
2013-03-09 15:03:00,47.4,36.6,29.98,SE,130,4.8,4.8,66,0.01,-RA,,0.03,WeatherDisplay:10.37,2013-03-09 21:03:00,
2013-03-09 15:08:00,47.7,36.9,29.97,SE,131,8.0,8.0,66,0.01,-RA,,0.03,WeatherDisplay:10.37,2013-03-09 21:08:00,
2013-03-09 15:13:00,47.9,36.7,29.97,ESE,120,6.9,8.1,65,0.01,-RA,,0.03,WeatherDisplay:10.37,2013-03-09 21:13:00,
2013-03-09 15:18:00,48.3,37.1,29.97,SSE,148,5.9,8.1,65,0.01,-RA,,0.03,WeatherDisplay:10.37,2013-03-09 21:18:00,
2013-03-09 15:23:00,48.9,36.9,29.96,ESE,105,7.7,8.1,63,0.01,-RA,,0.03,WeatherDisplay:10.37,2013-03-09 21:23:00,
2013-03-09 15:28:00,49.1,36.6,29.96,East,101,4.0,4.0,62,0.01,-RA,,0.03,WeatherDisplay:10.37,2013-03-09 21:28:00,
2013-03-09 15:33:00,49.2,37.1,29.96,ESE,113,2.7,3.5,63,0.01,SCT,,0.03,WeatherDisplay:10.37,2013-03-09 21:33:00,
2013-03-09 15:38:00,49.4,36.5,29.96,SE,134,5.2,5.2,61,0.00,SCT,,0.03,WeatherDisplay:10.37,2013-03-09 21:38:00,
2013-03-09 15:43:00,49.6,36.7,29.96,SE,130,3.1,4.6,61,0.00,SCT,,0.03,WeatherDisplay:10.37,2013-03-09 21:43:00,
2013-03-09 15:48:00,49.8,36.9,29.95,SE,130,1.7,3.5,61,0.00,SCT,,0.03,WeatherDisplay:10.37,2013-03-09 21:48:00,
2013-03-09 15:53:00,49.9,37.0,29.95,SE,138,3.7,8.1,61,0.00,CLR,,0.03,WeatherDisplay:10.37,2013-03-09 21:53:00,
2013-03-09 15:58:00,50.2,36.8,29.95,ESE,108,6.3,8.1,60,0.00,CLR,,0.03,WeatherDisplay:10.37,2013-03-09 21:58:00,
2013-03-09 16:03:00,50.7,36.5,29.95,SE,137,6.2,9.2,58,0.00,CLR,,0.03,WeatherDisplay:10.37,2013-03-09 22:03:00,
2013-03-09 16:08:00,51.1,36.8,29.95,SE,140,6.8,8.1,58,0.00,CLR,,0.03,WeatherDisplay:10.37,2013-03-09 22:08:00,
2013-03-09 16:13:00,51.3,36.6,29.94,East,93,3.2,4.6,57,0.00,CLR,,0.03,WeatherDisplay:10.37,2013-03-09 22:13:00,
2013-03-09 16:18:00,51.4,36.2,29.94,SE,130,6.4,8.1,56,0.00,CLR,,0.03,WeatherDisplay:10.37,2013-03-09 22:18:00,
2013-03-09 16:23:00,51.6,36.4,29.93,SSE,160,3.0,4.6,56,0.00,CLR,,0.03,WeatherDisplay:10.37,2013-03-09 22:23:00,
2013-03-09 16:28:00,51.7,36.0,29.93,SE,142,10.3,10.4,55,0.00,CLR,,0.03,WeatherDisplay:10.37,2013-03-09 22:28:00,
2013-03-09 16:33:00,52.0,35.9,29.93,ESE,121,7.3,8.1,54,0.00,CLR,,0.03,WeatherDisplay:10.37,2013-03-09 22:33:00,
2013-03-09 16:38:00,52.2,35.6,29.92,ESE,123,5.5,5.8,53,0.00,CLR,,0.03,WeatherDisplay:10.37,2013-03-09 22:38:00,
2013-03-09 16:43:00,52.3,35.7,29.93,SE,130,6.4,10.5,53,0.00,CLR,,0.03,WeatherDisplay:10.37,2013-03-09 22:43:00,
2013-03-09 16:48:00,52.5,35.8,29.92,SE,137,5.5,8.1,53,0.00,CLR,,0.03,WeatherDisplay:10.37,2013-03-09 22:48:00,
2013-03-09 16:53:00,52.6,35.0,29.92,SE,146,8.4,9.0,51,0.00,CLR,,0.03,WeatherDisplay:10.37,2013-03-09 22:53:00,
2013-03-09 16:58:00,52.9,34.8,29.92,East,88,9.0,10.4,50,0.00,CLR,,0.03,WeatherDisplay:10.37,2013-03-09 22:58:00,
2013-03-09 17:03:00,52.9,34.8,29.92,SE,125,7.6,18.0,50,0.00,CLR,,0.03,WeatherDisplay:10.37,2013-03-09 23:03:00,
2013-03-09 17:08:00,53.1,34.9,29.92,SE,134,12.2,13.8,50,0.00,CLR,,0.03,WeatherDisplay:10.37,2013-03-09 23:08:00,
2013-03-09 17:13:00,53.1,34.4,29.92,SE,134,10.4,13.8,49,0.00,CLR,,0.03,WeatherDisplay:10.37,2013-03-09 23:13:00,
2013-03-09 17:18:00,53.1,34.4,29.92,SSE,153,10.2,10.4,49,0.00,CLR,,0.03,WeatherDisplay:10.37,2013-03-09 23:18:00,
2013-03-09 17:23:00,53.1,33.9,29.91,ESE,121,19.2,19.2,48,0.00,CLR,,0.03,WeatherDisplay:10.37,2013-03-09 23:23:00,
2013-03-09 17:28:00,52.9,33.7,29.91,ESE,111,16.0,16.0,48,0.00,CLR,,0.03,WeatherDisplay:10.37,2013-03-09 23:28:00,
2013-03-09 17:33:00,52.9,34.2,29.91,SE,144,15.8,15.8,49,0.00,CLR,,0.03,WeatherDisplay:10.37,2013-03-09 23:33:00,
2013-03-09 17:38:00,52.9,34.2,29.91,SE,138,10.5,15.0,49,0.00,CLR,,0.03,WeatherDisplay:10.37,2013-03-09 23:38:00,
2013-03-09 17:43:00,52.8,34.2,29.91,ESE,123,9.9,18.4,49,0.00,CLR,,0.03,WeatherDisplay:10.37,2013-03-09 23:43:00,
2013-03-09 17:48:00,52.5,34.4,29.91,ESE,118,6.8,8.1,50,0.00,CLR,,0.03,WeatherDisplay:10.37,2013-03-09 23:48:00,
2013-03-09 17:53:00,52.3,34.2,29.91,East,86,7.0,8.1,50,0.00,CLR,,0.03,WeatherDisplay:10.37,2013-03-09 23:53:00,
2013-03-09 17:58:00,52.3,34.2,29.90,ESE,119,12.2,15.0,50,0.00,CLR,,0.03,WeatherDisplay:10.37,2013-03-09 23:58:00,
2013-03-09 18:03:00,52.3,34.2,29.90,SE,132,6.7,8.1,50,0.00,CLR,,0.03,WeatherDisplay:10.37,2013-03-10 00:03:00,
2013-03-09 18:08:00,52.2,34.1,29.90,SE,133,9.5,9.5,50,0.00,CLR,,0.03,WeatherDisplay:10.37,2013-03-10 00:08:00,
2013-03-09 18:13:00,52.2,33.6,29.90,SSE,153,12.0,16.1,49,0.00,CLR,,0.03,WeatherDisplay:10.37,2013-03-10 00:13:00,
2013-03-09 18:18:00,52.3,33.7,29.90,SE,140,9.8,10.4,49,0.00,CLR,,0.03,WeatherDisplay:10.37,2013-03-10 00:18:00,
2013-03-09 18:24:00,52.3,33.7,29.89,East,94,6.3,15.0,49,0.00,CLR,,0.03,WeatherDisplay:10.37,2013-03-10 00:24:00,
2013-03-09 18:29:00,52.2,33.6,29.89,SE,134,7.9,8.1,49,0.00,CLR,,0.03,WeatherDisplay:10.37,2013-03-10 00:29:00,
2013-03-09 18:34:00,52.3,33.2,29.89,ESE,122,11.9,15.0,48,0.00,CLR,,0.03,WeatherDisplay:10.37,2013-03-10 00:34:00,
2013-03-09 18:39:00,52.5,33.4,29.89,SE,129,13.1,13.8,48,0.00,CLR,,0.03,WeatherDisplay:10.37,2013-03-10 00:39:00,
2013-03-09 18:44:00,52.5,33.4,29.88,SE,134,6.0,8.1,48,0.00,CLR,,0.03,WeatherDisplay:10.37,2013-03-10 00:44:00,
2013-03-09 18:49:00,52.5,33.4,29.88,SE,126,6.6,13.8,48,0.00,CLR,,0.03,WeatherDisplay:10.37,2013-03-10 00:49:00,
2013-03-09 18:54:00,52.5,32.8,29.88,SSE,165,7.5,13.8,47,0.00,CLR,,0.03,WeatherDisplay:10.37,2013-03-10 00:54:00,
2013-03-09 18:59:00,52.8,33.1,29.88,SSE,149,10.4,18.4,47,0.00,CLR,,0.03,WeatherDisplay:10.37,2013-03-10 00:59:00,
2013-03-09 19:04:00,52.6,32.9,29.88,East,96,9.1,9.1,47,0.00,CLR,,0.03,WeatherDisplay:10.37,2013-03-10 01:04:00,
2013-03-09 19:09:00,52.6,32.9,29.88,SE,129,8.6,13.8,47,0.00,CLR,,0.03,WeatherDisplay:10.37,2013-03-10 01:09:00,
2013-03-09 19:14:00,52.8,33.1,29.87,SSE,155,9.0,13.5,47,0.00,CLR,,0.03,WeatherDisplay:10.37,2013-03-10 01:14:00,
2013-03-09 19:19:00,52.8,32.6,29.87,SE,132,18.6,23.0,46,0.00,CLR,,0.03,WeatherDisplay:10.37,2013-03-10 01:19:00,
2013-03-09 19:24:00,52.9,32.7,29.87,East,100,17.5,17.5,46,0.00,CLR,,0.03,WeatherDisplay:10.37,2013-03-10 01:24:00,
2013-03-09 19:29:00,52.9,32.7,29.87,SE,132,15.0,19.6,46,0.00,CLR,,0.03,WeatherDisplay:10.37,2013-03-10 01:29:00,
2013-03-09 19:34:00,53.2,32.4,29.87,ESE,121,17.0,20.7,45,0.00,CLR,,0.03,WeatherDisplay:10.37,2013-03-10 01:34:00,
2013-03-09 19:39:00,53.2,32.4,29.87,ESE,111,9.3,16.1,45,0.00,CLR,,0.03,WeatherDisplay:10.37,2013-03-10 01:39:00,
2013-03-09 19:44:00,53.5,32.7,29.87,SE,125,13.3,15.0,45,0.00,CLR,,0.03,WeatherDisplay:10.37,2013-03-10 01:44:00,
2013-03-09 19:49:00,53.6,32.2,29.87,SE,130,10.3,15.0,44,0.00,CLR,,0.03,WeatherDisplay:10.37,2013-03-10 01:49:00,
2013-03-09 19:54:00,53.5,32.7,29.87,SE,131,9.1,18.0,45,0.00,CLR,,0.03,WeatherDisplay:10.37,2013-03-10 01:54:00,
2013-03-09 19:59:00,53.5,32.7,29.87,SSE,149,13.6,18.4,45,0.00,CLR,,0.03,WeatherDisplay:10.37,2013-03-10 01:59:00,
2013-03-09 20:04:00,53.5,32.7,29.87,SE,142,7.9,9.0,45,0.00,CLR,,0.03,WeatherDisplay:10.37,2013-03-10 02:04:00,
2013-03-09 20:09:00,53.5,32.7,29.88,SSE,163,11.7,11.7,45,0.00,CLR,,0.03,WeatherDisplay:10.37,2013-03-10 02:09:00,
2013-03-09 20:14:00,53.5,32.7,29.88,SE,138,7.3,9.2,45,0.00,BKN,,0.03,WeatherDisplay:10.37,2013-03-10 02:14:00,
2013-03-09 20:19:00,53.5,32.7,29.87,SSE,159,20.9,20.9,45,0.00,BKN,,0.03,WeatherDisplay:10.37,2013-03-10 02:19:00,
2013-03-09 20:24:00,53.6,32.8,29.87,SSE,154,12.5,13.8,45,0.00,BKN,,0.03,WeatherDisplay:10.37,2013-03-10 02:24:00,
2013-03-09 20:29:00,53.5,32.7,29.88,SE,128,9.5,15.0,45,0.00,BKN,,0.03,WeatherDisplay:10.37,2013-03-10 02:29:00,
2013-03-09 20:34:00,53.2,32.9,29.88,SSE,155,13.4,13.4,46,0.00,OVC,,0.03,WeatherDisplay:10.37,2013-03-10 02:34:00,
2013-03-09 20:39:00,53.1,33.4,29.87,ESE,123,8.5,10.4,47,0.00,OVC,,0.03,WeatherDisplay:10.37,2013-03-10 02:39:00,
2013-03-09 20:44:00,52.9,33.2,29.88,South,169,15.9,29.9,47,0.00,OVC,,0.03,WeatherDisplay:10.37,2013-03-10 02:44:00,
2013-03-09 20:49:00,52.6,33.5,29.87,SSE,157,13.9,13.9,48,0.00,OVC,,0.03,WeatherDisplay:10.37,2013-03-10 02:49:00,
2013-03-09 20:54:00,52.5,33.4,29.88,SSE,157,12.8,20.7,48,0.00,BKN,,0.03,WeatherDisplay:10.37,2013-03-10 02:54:00,
2013-03-09 20:59:00,52.2,33.6,29.87,SSE,152,9.0,9.2,49,0.00,BKN,,0.03,WeatherDisplay:10.37,2013-03-10 02:59:00,
2013-03-09 21:04:00,52.0,33.9,29.87,East,101,10.0,10.0,50,0.00,BKN,,0.03,WeatherDisplay:10.37,2013-03-10 03:04:00,
2013-03-09 21:09:00,51.7,33.6,29.86,SE,134,10.8,10.8,50,0.00,BKN,,0.03,WeatherDisplay:10.37,2013-03-10 03:09:00,
2013-03-09 21:14:00,51.7,34.1,29.86,South,173,8.8,8.8,51,0.00,SCT,,0.03,WeatherDisplay:10.37,2013-03-10 03:14:00,
2013-03-09 21:19:00,51.6,34.0,29.86,SSE,153,10.5,19.5,51,0.00,SCT,,0.03,WeatherDisplay:10.37,2013-03-10 03:19:00,
2013-03-09 21:24:00,51.7,34.1,29.86,SE,129,12.4,12.4,51,0.00,SCT,,0.03,WeatherDisplay:10.37,2013-03-10 03:24:00,
2013-03-09 21:29:00,51.6,34.0,29.86,South,186,7.3,10.4,51,0.00,SCT,,0.03,WeatherDisplay:10.37,2013-03-10 03:29:00,
2013-03-09 21:34:00,51.4,34.3,29.86,SSE,150,9.4,13.8,52,0.00,CLR,,0.03,WeatherDisplay:10.37,2013-03-10 03:34:00,
2013-03-09 21:39:00,51.3,34.3,29.86,SE,130,6.5,7.5,52,0.00,CLR,,0.03,WeatherDisplay:10.37,2013-03-10 03:39:00,
2013-03-09 21:44:00,51.1,34.1,29.86,SE,146,8.1,10.4,52,0.00,CLR,,0.03,WeatherDisplay:10.37,2013-03-10 03:44:00,
2013-03-09 21:49:00,51.3,34.3,29.86,SE,133,13.0,13.0,52,0.00,CLR,,0.03,WeatherDisplay:10.37,2013-03-10 03:49:00,
2013-03-09 21:54:00,51.1,34.1,29.86,SE,129,11.9,11.9,52,0.00,CLR,,0.03,WeatherDisplay:10.37,2013-03-10 03:54:00,
2013-03-09 21:59:00,51.1,34.1,29.85,ESE,119,15.0,15.0,52,0.00,CLR,,0.03,WeatherDisplay:10.37,2013-03-10 03:59:00,
2013-03-09 22:04:00,51.0,34.5,29.85,SE,126,10.1,10.4,53,0.00,CLR,,0.03,WeatherDisplay:10.37,2013-03-10 04:04:00,
2013-03-09 22:09:00,51.0,34.5,29.85,SE,142,9.3,16.1,53,0.00,CLR,,0.03,WeatherDisplay:10.37,2013-03-10 04:09:00,
2013-03-09 22:14:00,50.8,34.3,29.85,SE,125,8.3,11.5,53,0.00,CLR,,0.03,WeatherDisplay:10.37,2013-03-10 04:14:00,
2013-03-09 22:19:00,51.0,34.5,29.85,SSE,159,15.1,20.7,53,0.00,CLR,,0.03,WeatherDisplay:10.37,2013-03-10 04:19:00,
2013-03-09 22:24:00,51.3,34.3,29.84,ESE,123,13.5,18.4,52,0.00,CLR,,0.03,WeatherDisplay:10.37,2013-03-10 04:24:00,
2013-03-09 22:29:00,51.3,34.3,29.84,South,171,12.3,12.3,52,0.00,CLR,,0.03,WeatherDisplay:10.37,2013-03-10 04:29:00,
2013-03-09 22:34:00,51.4,34.3,29.84,South,169,12.4,19.6,52,0.00,CLR,,0.03,WeatherDisplay:10.37,2013-03-10 04:34:00,
2013-03-09 22:39:00,51.3,34.3,29.84,ESE,111,12.6,12.6,52,0.00,CLR,,0.03,WeatherDisplay:10.37,2013-03-10 04:39:00,
2013-03-09 22:44:00,51.4,33.9,29.83,SW,222,13.2,19.6,51,0.00,CLR,,0.03,WeatherDisplay:10.37,2013-03-10 04:44:00,
2013-03-09 22:49:00,51.4,33.9,29.83,SE,129,9.1,11.5,51,0.00,CLR,,0.03,WeatherDisplay:10.37,2013-03-10 04:49:00,
2013-03-09 22:54:00,51.6,34.0,29.83,SE,130,13.9,16.1,51,0.00,CLR,,0.03,WeatherDisplay:10.37,2013-03-10 04:54:00,
2013-03-09 22:59:00,51.6,34.0,29.83,SE,145,10.7,23.0,51,0.00,CLR,,0.03,WeatherDisplay:10.37,2013-03-10 04:59:00,
2013-03-09 23:00:00,51.7,34.1,29.83,ESE,114,10.3,10.4,51,0.00,CLR,,0.03,WeatherDisplay:10.37,2013-03-10 05:00:00,
2013-03-09 23:05:00,51.7,34.1,29.83,SE,137,12.0,12.0,51,0.00,CLR,,0.03,WeatherDisplay:10.37,2013-03-10 05:05:00,
2013-03-09 23:10:00,51.7,34.1,29.83,SSE,153,20.3,23.0,51,0.00,CLR,,0.03,WeatherDisplay:10.37,2013-03-10 05:10:00,
2013-03-09 23:15:00,51.7,34.1,29.83,SE,146,9.8,11.5,51,0.00,CLR,,0.03,WeatherDisplay:10.37,2013-03-10 05:15:00,
2013-03-09 23:20:00,51.9,34.3,29.82,SE,139,13.3,13.8,51,0.00,CLR,,0.03,WeatherDisplay:10.37,2013-03-10 05:20:00,
2013-03-09 23:25:00,51.9,34.3,29.82,ESE,106,15.5,21.0,51,0.00,CLR,,0.03,WeatherDisplay:10.37,2013-03-10 05:25:00,
2013-03-09 23:30:00,51.9,34.3,29.82,SE,140,15.4,18.4,51,0.00,CLR,,0.03,WeatherDisplay:10.37,2013-03-10 05:30:00,
2013-03-09 23:35:00,52.0,34.4,29.82,SSE,147,10.4,11.5,51,0.00,CLR,,0.03,WeatherDisplay:10.37,2013-03-10 05:35:00,
2013-03-09 23:40:00,52.2,34.1,29.82,ESE,107,14.4,16.1,50,0.00,CLR,,0.03,WeatherDisplay:10.37,2013-03-10 05:40:00,
2013-03-09 23:46:00,52.5,34.4,29.82,South,171,10.6,15.0,50,0.00,CLR,,0.03,WeatherDisplay:10.37,2013-03-10 05:46:00,
2013-03-09 23:51:00,52.5,34.4,29.81,ESE,116,14.5,15.0,50,0.00,CLR,,0.03,WeatherDisplay:10.37,2013-03-10 05:51:00,
2013-03-09 23:56:00,52.5,34.4,29.81,SE,140,19.1,19.1,50,0.00,CLR,,0.03,WeatherDisplay:10.37,2013-03-10 05:56:00,